Date String (YYYY-MM-DD hh:mm:ss) UTC,Instrument flags,absolute air pressure of the measurement (hPa),sample flow rate (lpm),inlet stack bypass flow (lpm),air temperature of the measurement (°C),ambient temperature measured by the external sensor (°C),aerosol sample conditioner tube jacket temperature (°C),OPC LED temperature (°C),internal box temperature (°C),relative humidity of the measurement (%),span deviation,mass concentration of particles derived from Lorenz-Mie calculation of OPC scattering (μg/m³),mass concentration of particles derived from Lorenz-Mie calculation of OPC scattering (μg/m³),mass concentration of particles derived from Lorenz-Mie calculation of OPC scattering (μg/m³)
DateTimeUTC,F1_M11,P_M11,Q1_M11,Q2_M11,T1_M11,T2_M11,T3_M11,T4_M11,T5_M11,U1_M11,ZSPAN_M11,X0_M11,X2_M11,X1_M11
2023-08-17 07:00:00,SystemResetWarning,0833.6,5.00,000.00,028.0,026.9,000.0,036.4,029.9,23.9,0000.0,0006.70,0004.14,0003.79
2023-08-17 07:01:00,SystemResetWarning,0833.6,5.00,000.00,028.1,027.0,000.0,036.4,029.9,23.9,0000.0,0006.73,0004.14,0003.80
2023-08-17 07:02:00,SystemResetWarning,0833.6,4.99,000.00,028.1,026.8,000.0,036.4,029.9,23.9,0000.0,0006.51,0004.10,0003.80
2023-08-17 07:03:00,SystemResetWarning,0833.6,4.99,000.00,028.1,025.0,000.0,036.3,029.6,23.9,0000.0,0006.68,0004.14,0003.80
2023-08-17 07:04:00,SystemResetWarning,0833.5,5.00,000.00,028.0,023.6,000.0,036.2,029.3,23.8,0000.0,0007.02,0004.14,0003.80
2023-08-17 07:05:00,SystemResetWarning,0833.5,5.01,000.00,027.9,023.5,000.0,036.2,029.1,23.9,0000.0,0007.44,0004.12,0003.80
2023-08-17 07:06:00,SystemResetWarning,0833.5,5.00,000.00,027.8,023.9,000.0,036.2,029.0,23.7,0000.0,0007.42,0004.08,0003.80
2023-08-17 07:07:00,SystemResetWarning,0833.5,5.00,000.00,027.7,024.3,000.0,036.2,029.1,23.6,0000.0,0007.58,0004.09,0003.81
2023-08-17 07:08:00,SystemResetWarning,0833.6,5.00,000.00,027.7,024.8,000.0,036.2,029.3,24.2,0000.0,0007.61,0004.11,0003.82
2023-08-17 07:09:00,SystemResetWarning,0833.6,4.99,000.00,027.7,025.2,000.0,036.2,029.4,24.0,0000.0,0007.68,0004.13,0003.82
2023-08-17 07:10:00,SystemResetWarning,0833.6,5.00,000.00,027.8,025.6,000.0,036.3,029.4,24.2,0000.0,0007.68,0004.15,0003.83
2023-08-17 07:11:00,SystemResetWarning,0833.6,4.99,000.00,027.8,025.9,000.0,036.3,029.5,24.1,0000.0,0007.77,0004.18,0003.84
2023-08-17 07:12:00,SystemResetWarning,0833.6,4.99,000.00,027.8,026.1,000.0,036.3,029.6,23.8,0000.0,0007.74,0004.18,0003.85
2023-08-17 07:13:00,SystemResetWarning,0833.6,5.00,000.00,027.9,026.4,000.0,036.3,029.7,23.7,0000.0,0007.73,0004.18,0003.85
2023-08-17 07:14:00,SystemResetWarning,0833.6,5.01,000.00,027.9,026.6,000.0,036.3,029.7,23.8,0000.0,0007.74,0004.15,0003.85
2023-08-17 07:15:00,SystemResetWarning,0833.6,5.00,000.00,028.0,026.7,000.0,036.4,029.8,23.5,0000.0,0008.08,0004.17,0003.85
2023-08-17 07:16:00,SystemResetWarning,0833.6,5.00,000.00,028.0,026.9,000.0,036.4,029.8,23.4,0000.0,0007.85,0004.17,0003.86
2023-08-17 07:17:00,SystemResetWarning,0833.6,4.99,000.00,028.1,027.0,000.0,036.4,029.9,23.4,0000.0,0007.95,0004.18,0003.87
2023-08-17 07:18:00,SystemResetWarning,0833.6,4.99,000.00,028.1,027.1,000.0,036.4,029.9,23.1,0000.0,0007.77,0004.18,0003.87
2023-08-17 07:19:00,SystemResetWarning,0833.6,5.00,000.00,028.1,026.9,000.0,036.5,029.9,23.5,0000.0,0007.80,0004.20,0003.87
2023-08-17 07:20:00,SystemResetWarning,0833.6,5.00,000.00,028.1,025.3,000.0,036.4,029.7,23.4,0000.0,0007.84,0004.22,0003.89
2023-08-17 07:21:00,SystemResetWarning,0833.5,5.01,000.00,028.1,024.5,000.0,036.3,029.5,23.5,0000.0,0007.79,0004.21,0003.89
2023-08-17 07:22:00,SystemResetWarning,0833.6,5.01,000.00,028.0,024.6,000.0,036.3,029.4,23.4,0000.0,0007.80,0004.21,0003.90
2023-08-17 07:23:00,SystemResetWarning,0833.5,5.00,000.00,027.9,024.9,000.0,036.3,029.4,23.3,0000.0,0007.90,0004.24,0003.92
2023-08-17 07:24:00,SystemResetWarning,0833.6,5.00,000.00,027.9,025.3,000.0,036.3,029.5,23.7,0000.0,0008.00,0004.27,0003.94
2023-08-17 07:25:00,SystemResetWarning,0833.6,5.00,000.00,027.9,025.6,000.0,036.4,029.6,23.5,0000.0,0007.96,0004.29,0003.96
2023-08-17 07:26:00,SystemResetWarning,0833.6,5.00,000.00,028.0,026.0,000.0,036.4,029.7,23.6,0000.0,0007.76,0004.32,0003.98
2023-08-17 07:27:00,SystemResetWarning,0833.7,5.01,000.00,028.0,026.2,000.0,036.4,029.7,23.4,0000.0,0007.59,0004.36,0004.00
2023-08-17 07:28:00,SystemResetWarning,0833.7,5.00,000.00,028.0,026.5,000.0,036.4,029.8,23.4,0000.0,0007.48,0004.37,0004.01
2023-08-17 07:29:00,SystemResetWarning,0833.6,4.99,000.00,028.1,026.6,000.0,036.5,029.9,23.7,0000.0,0007.55,0004.39,0004.02
2023-08-17 07:30:00,SystemResetWarning,0833.6,5.00,000.00,028.1,026.8,000.0,036.5,029.9,23.4,0000.0,0007.66,0004.39,0004.02
2023-08-17 07:31:00,SystemResetWarning,0833.7,4.99,000.00,028.2,027.0,000.0,036.5,030.0,23.1,0000.0,0007.62,0004.39,0004.03
2023-08-17 07:32:00,SystemResetWarning,0833.7,5.00,000.00,028.2,027.0,000.0,036.6,030.0,23.1,0000.0,0007.95,0004.40,0004.04
2023-08-17 07:33:00,SystemResetWarning,0833.7,5.00,000.00,028.2,025.8,000.0,036.5,029.9,22.6,0000.0,0008.28,0004.40,0004.05
2023-08-17 07:34:00,SystemResetWarning,0833.7,5.01,000.00,028.1,024.5,000.0,036.4,029.6,22.5,0000.0,0008.24,0004.37,0004.05
2023-08-17 07:35:00,SystemResetWarning,0833.6,5.02,000.00,028.1,024.5,000.0,036.3,029.4,23.3,0000.0,0008.37,0004.38,0004.06
2023-08-17 07:36:00,SystemResetWarning,0833.7,5.00,000.00,028.0,024.7,000.0,036.4,029.4,23.5,0000.0,0008.43,0004.40,0004.05
2023-08-17 07:37:00,SystemResetWarning,0833.7,5.00,000.00,027.9,025.1,000.0,036.4,029.5,22.9,0000.0,0008.45,0004.38,0004.04
2023-08-17 07:38:00,SystemResetWarning,0833.7,5.00,000.00,028.0,025.5,000.0,036.4,029.6,22.6,0000.0,0008.55,0004.38,0004.04
2023-08-17 07:39:00,SystemResetWarning,0833.7,5.00,000.00,028.0,025.8,000.0,036.5,029.7,22.4,0000.0,0008.49,0004.38,0004.04
2023-08-17 07:40:00,SystemResetWarning,0833.7,5.01,000.00,028.0,026.1,000.0,036.5,029.7,22.6,0000.0,0008.49,0004.38,0004.04
2023-08-17 07:41:00,SystemResetWarning,0833.7,4.99,000.00,028.0,026.4,000.0,036.5,029.8,22.4,0000.0,0008.29,0004.36,0004.05
2023-08-17 07:42:00,SystemResetWarning,0833.7,5.00,000.00,028.1,026.6,000.0,036.5,029.9,22.4,0000.0,0008.33,0004.36,0004.05
2023-08-17 07:43:00,SystemResetWarning,0833.7,4.99,000.00,028.1,026.8,000.0,036.5,029.9,22.3,0000.0,0008.24,0004.37,0004.06
2023-08-17 07:44:00,SystemResetWarning,0833.8,4.99,000.00,028.2,026.9,000.0,036.6,030.0,22.1,0000.0,0007.89,0004.38,0004.05
2023-08-17 07:45:00,SystemResetWarning,0833.8,5.01,000.00,028.2,027.1,000.0,036.6,030.0,22.1,0000.0,0007.86,0004.40,0004.06
2023-08-17 07:46:00,SystemResetWarning,0833.8,4.99,000.00,028.2,026.5,000.0,036.6,030.0,22.1,0000.0,0007.64,0004.40,0004.04
2023-08-17 07:47:00,SystemResetWarning,0833.7,5.02,000.00,028.2,024.8,000.0,036.5,029.7,22.2,0000.0,0007.67,0004.40,0004.04
2023-08-17 07:48:00,SystemResetWarning,0833.7,5.01,000.00,028.1,024.5,000.0,036.4,029.6,22.2,0000.0,0007.57,0004.41,0004.05
2023-08-17 07:49:00,SystemResetWarning,0833.7,5.00,000.00,028.1,024.7,000.0,036.4,029.4,22.4,0000.0,0007.36,0004.40,0004.06
2023-08-17 07:50:00,SystemResetWarning,0833.7,5.00,000.00,028.0,025.1,000.0,036.4,029.5,22.4,0000.0,0007.38,0004.39,0004.06
2023-08-17 07:51:00,SystemResetWarning,0833.7,5.00,000.00,028.0,025.4,000.0,036.5,029.6,22.4,0000.0,0007.57,0004.38,0004.07
2023-08-17 07:52:00,SystemResetWarning,0833.8,5.00,000.00,028.0,025.8,000.0,036.5,029.7,22.5,0000.0,0007.82,0004.39,0004.08
2023-08-17 07:53:00,SystemResetWarning,0833.7,5.01,000.00,028.1,026.1,000.0,036.5,029.8,22.6,0000.0,0008.12,0004.38,0004.06
2023-08-17 07:54:00,SystemResetWarning,0833.8,5.01,000.00,028.1,026.4,000.0,036.5,029.8,22.6,0000.0,0007.96,0004.39,0004.06
2023-08-17 07:55:00,SystemResetWarning,0833.8,5.00,000.00,028.1,026.6,000.0,036.6,029.9,22.5,0000.0,0008.02,0004.38,0004.05
2023-08-17 07:56:00,SystemResetWarning,0833.8,4.98,000.00,028.2,026.8,000.0,036.6,029.9,22.5,0000.0,0008.47,0004.37,0004.04
2023-08-17 07:57:00,SystemResetWarning,0833.7,5.00,000.00,028.2,027.0,000.0,036.6,030.0,22.5,0000.0,0008.82,0004.38,0004.03
2023-08-17 07:58:00,SystemResetWarning,0833.7,5.01,000.00,028.3,027.1,000.0,036.6,030.1,22.4,0000.0,0008.81,0004.37,0004.04
2023-08-17 07:59:00,SystemResetWarning,0833.7,4.99,000.00,028.3,026.2,000.0,036.6,029.9,22.4,0000.0,0008.97,0004.37,0004.02
